Regional Weather Roundup
Issued by NWS

Home | Current Version | Previous Version | Text Only | Print | Product List | Glossary On
Versions: 1 2 3 4 5 6 7 8 9 10 11 12 13 14 15 16 17 18 19 20 21 22 23 24 25 26 27 28 29 30 31 32 33 34 35 36 37 38 39 40 41 42 43 44 45 46 47 48 49 50
000
ASUS43 KDMX 210206
RWRIA

WEATHER ROUNDUP FOR IOWA
NATIONAL WEATHER SERVICE DES MOINES IA
900 PM CDT FRI OCT 20 2017

NOTE: "FAIR" INDICATES FEW OR NO CLOUDS BELOW 12,000 FEET WITH NO
SIGNIFICANT WEATHER AND/OR OBSTRUCTIONS TO VISIBILITY.

* - THESE STATIONS ARE NOT NWS STATIONS...THUS NOT UNDER NWS
QUALITY CONTROL.  THEY ALSO DO NOT REPORT WEATHER SUCH
AS PRECIPITATION OR FOG.

IAZ001>003-012>014-020>022-031>034-043>046-210300-
   NORTHWEST IOWA

CITY           SKY/WX    TMP DP  RH WIND       PRES   REMARKS
CHEROKEE *     MOCLDY    68  57  67 S23G30    29.68S
DENISON *      CLEAR     66  57  72 S20G26    29.73S
LE MARS *      CLEAR     70  59  68 S20G32    29.62S
ORANGE CITY *  CLEAR     70  61  73 S15G23    29.63F
SHELDON *      CLEAR     68  57  68 S17G29    29.62F
SIOUX CITY     CLOUDY    70  59  68 S17G35    29.63F
SPENCER        CLEAR     67  55  65 S23G32    29.68F
STORM LAKE *   PTCLDY    66  55  68 S21G32    29.71R
$$

IAZ055>058-069>071-079>083-090>094-210300-
   SOUTHWEST IOWA

CITY           SKY/WX    TMP DP  RH WIND       PRES   REMARKS
ATLANTIC *     CLEAR     66  57  72 S15G23    29.76F
AUDUBON *      PTCLDY    64  57  77 S16G22    29.78S
CLARINDA *       N/A     66  59  77 S10G18    29.82R
COUNCIL BLFS * PTCLDY    68  61  77 S23G32    29.74R
CRESTON *      CLEAR     63  55  77 SE15G25   29.83F
HARLAN  *      CLEAR     66  57  72 S16G30    29.78R
LAMONI         CLEAR     63  53  70 S10G20    29.85F
RED OAK *      CLEAR     66  57  72 S16G24    29.77S
SHENANDOAH *   CLEAR     68  57  68 SE13G21   29.78R
$$

IAZ047>049-059>061-072>074-084-210300-
   CENTRAL IOWA

CITY           SKY/WX    TMP DP  RH WIND       PRES   REMARKS
AMES           PTCLDY    64  54  69 S15       29.82F
ANKENY *       PTCLDY    64  52  63 S14G21    29.84S
BOONE *        CLEAR     63  54  72 S15G22    29.81S
CHARITON *     CLEAR     63  52  67 S13G21    29.86F
DES MOINES     PTCLDY    65  52  62 SE16      29.83F
GRINNELL*      CLOUDY    63  49  61 S16       29.89F
KNOXVILLE *    PTCLDY    64  50  59 S14       29.85S
MARSHALLTOWN   CLOUDY    64  51  62 SE16      29.85F
NEWTON *       MOCLDY    63  50  63 S15G23    29.86F
PELLA *        MOCLDY    64  49  59 S12       29.89S
PERRY *          N/A     64  53  66 S12G21    29.81S
$$

IAZ004>006-015-016-023>025-035-036-210300-
   NORTH CENTRAL IOWA

CITY           SKY/WX    TMP DP  RH WIND       PRES   REMARKS
ALGONA *       CLOUDY    66  54  63 S17G25    29.74F
CLARION *      CLOUDY    64  52  63 S21G28    29.79F
ESTHERVILLE    CLOUDY    65  54  67 S21G31    29.70F
FORT DODGE *   CLOUDY    66  54  65 S18G28    29.77F
MASON CITY     PTCLDY    63  49  60 S16       29.82S
FOREST CITY *    N/A     63  50  63 S17G23    29.78F
WEBSTER CITY * CLOUDY    64  52  63 S16G25    29.78S
IOWA FALLS *     N/A     64  51  62 S15       29.84F
$$

IAZ007>011-017>019-026>030-037>042-050>054-066-210300-
   NORTHEAST IOWA

CITY           SKY/WX    TMP DP  RH WIND       PRES   REMARKS
CEDAR RAPIDS   CLOUDY    66  47  50 S10       29.91S
CHARLES CITY * MOCLDY    64  46  52 S17       29.85R
CLINTON *      CLOUDY    65  46  50 S10       29.97F
DECORAH *      CLOUDY    66  45  45 S14G23    29.86S
DUBUQUE        CLOUDY    65  46  50 S15G25    29.94F
MONTICELLO *   PTCLDY    66  46  48 S10       29.93R
OELWEIN *      CLOUDY    66  46  48 S17       29.89R
WATERLOO       CLOUDY    64  47  53 S20G29    29.85F
$$

IAZ064-065-067-068-078-210300-
   EAST CENTRAL IOWA

CITY           SKY/WX    TMP DP  RH WIND       PRES   REMARKS
DAVENPORT      PTCLDY    68  44  42 S15G22    29.98F
IOWA CITY      CLOUDY    67  47  48 SE12      29.94S
MUSCATINE *    CLOUDY    66  48  52 S12       29.94F
QUAD CITIES    CLOUDY    66  45  46 S10       29.97S
$$

IAZ062-063-075>077-085>089-095>099-210300-
   SOUTHEAST IOWA

CITY           SKY/WX    TMP DP  RH WIND       PRES   REMARKS
BURLINGTON     CLOUDY    67  50  54 S13G23    29.96S
FAIRFIELD *    CLOUDY    66  48  52 S13       29.92R
FORT MADISON * CLOUDY    66  52  59 S12G17    29.97S
KEOKUK *       CLOUDY    68  50  52 S12G17    29.95S
OSKALOOSA *      N/A     63  49  61 S14       29.90F
OTTUMWA        CLOUDY    66  49  54 S18G25    29.90F
WASHINGTON *   CLOUDY    66  50  55 S14G21    29.94R
$$

ABBREVIATIONS USED IN REMARKS
   TC - TEMPERATURES IN CELSIUS
  WCI - WIND CHILL INDEX
   HX - HEAT INDEX
  VSB - VISIBILITY
$$





USA.gov is the U.S. government's official web portal to all federal, state and local government web resources and services.